Wetbulb
66.63 67.31 65.41 63.58 63.54 63.05 63.12 60.18 57.58 55.54 56.64 56.22 53.65 51.75 50.39 50.20 49.99 50.49 51.16 49.11 50.18 53.66 56.78 60.04 61.62 61.70 61.28 61.40 61.37 61.33 61.00 60.83 59.36 58.17 57.00 57.35 58.13 58.90 58.79 60.02 59.65 59.23 59.45
63.75 63.62 63.03 63.53 62.39 61.52 60.48 58.68 56.13 54.84 52.61 51.23 54.43 51.98 51.12 50.91 50.14 49.92 50.10 51.02 48.01 50.54 52.78 56.41 59.85 61.89 62.93 62.64 62.12 61.88 61.77 61.81 61.82 59.08 57.54 56.42 57.30 57.79 57.57 58.52 58.06 57.35 57.52
61.31 60.44 59.23 58.56 58.40 58.50 56.70 55.78 54.13 53.55 52.56 53.53 51.88 50.92 52.30 51.56 51.08 49.98 49.61 49.53 50.35 50.48 50.07 53.00 55.18 57.81 58.99 60.22 62.42 63.81 62.47 63.42 62.39 59.48 57.86 56.37 56.41 56.79 58.00 57.96 57.84 56.36 56.63
57.34 56.58 55.86 55.07 55.55 55.01 54.14 52.60 51.82 51.26 51.05 52.58 53.98 52.37 49.54 51.67 51.48 50.97 50.53 50.18 49.73 48.91 51.24 50.07 51.63 53.46 55.27 57.07 58.50 60.53 61.82 62.72 61.95 60.34 59.86 58.24 55.56 56.25 56.84 56.74 57.25 56.31 56.53
51.37 51.07 52.74 52.89 52.80 52.25 52.25 51.87 51.49 50.23 50.01 49.06 46.82 47.61 47.74 47.76 51.51 50.60 50.62 49.31 48.69 48.30 48.43 48.60 47.29 48.05 49.92 53.05 55.85 57.73 59.33 60.59 61.89 62.23 60.24 57.80 56.63 56.16 56.18 56.06 56.62 56.55 56.75
49.25 49.93 49.32 50.27 51.39 51.74 50.45 52.00 51.52 50.88 49.27 48.55 47.56 47.73 51.96 51.41 51.58 50.84 48.88 47.47 47.71 47.09 47.46 47.40 48.35 48.53 47.16 49.52 51.74 53.67 55.56 58.11 60.18 61.80 61.22 59.08 58.41 57.67 56.39 56.16 55.97 55.99 56.47
47.09 47.93 47.82 48.59 49.23 48.42 48.28 48.63 50.44 49.34 47.83 48.19 50.29 50.65 51.66 49.24 48.24 48.76 48.81 47.93 46.79 47.25 47.34 46.98 47.01 47.05 47.25 47.45 48.38 50.12 52.16 53.85 56.10 59.70 60.93 61.25 58.88 57.98 57.40 56.92 56.13 55.84 55.98
42.25 43.01 43.98 43.83 45.13 45.22 44.86 45.85 46.79 47.50 47.23 46.29 45.06 47.45 46.77 48.72 47.68 48.46 47.32 45.61 46.92 47.12 47.24 47.57 47.43 47.20 47.17 47.51 47.45 48.47 50.08 51.40 52.32 53.47 56.39 59.12 60.25 60.12 58.65 57.85 57.08 56.43 56.45
39.11 39.52 39.65 39.79 39.95 41.03 39.93 41.18 42.84 43.98 43.32 45.22 44.92 44.19 43.12 41.88 42.66 46.61 45.17 46.79 45.53 45.55 46.06 46.33 46.26 46.68 47.04 47.47 47.45 47.51 47.25 47.89 49.83 50.90 51.68 52.59 55.75 58.61 59.78 59.37 57.95 56.91 56.19
36.98 37.41 37.50 37.59 37.57 37.66 37.16 37.07 37.98 38.45 39.39 37.36 42.02 41.70 43.15 41.86 39.18 38.56 43.50 43.03 42.62 40.13 41.73 43.98 43.15 44.66 45.64 46.24 46.29 45.17 44.36 44.90 46.35 48.06 49.39 50.69 51.65 53.11 56.26 58.61 59.48 57.84 56.49
35.75 35.69 36.04 36.07 35.78 36.03 35.91 35.79 35.95 35.96 36.26 35.84 35.72 36.26 37.14 38.56 39.31 34.63 33.18 35.48 37.39 38.89 41.06 39.38 41.65 42.34 44.56 45.64 45.51 44.56 42.56 43.83 44.84 45.65 46.95 48.46 49.90 51.24 52.17 54.18 57.52 59.21 57.29
34.18 34.05 34.03 34.07 33.99 33.87 33.75 34.24 34.45 34.00 34.39 34.33 34.68 34.76 33.93 32.96 32.50 32.52 31.77 32.64 33.24 35.61 37.11 38.33 39.76 41.29 42.82 44.02 43.07 40.90 41.37 42.82 44.03 44.79 45.34 46.19 47.67 49.43 50.96 51.92 53.50 57.25 58.30
32.85 32.34 33.19 32.75 32.20 32.12 32.05 32.73 32.46 32.08 31.84 31.74 31.88 32.36 33.10 32.76 33.05 32.68 31.65 31.07 30.60 33.47 34.69 37.60 38.31 40.92 40.43 42.80 42.86 39.42 39.59 41.30 42.21 42.60 43.79 45.02 46.37 47.39 48.93 50.66 51.72 53.43 57.89
32.32 32.42 32.05 31.68 31.20 30.99 31.11 31.33 31.05 30.66 30.76 30.72 30.42 30.97 30.82 31.67 31.94 31.52 30.35 29.13 27.71 30.19 32.95 33.83 37.31 39.12 40.01 41.37 39.09 37.83 38.70 39.95 40.17 41.04 41.78 42.75 44.71 46.11 47.10 48.64 50.71 52.50 56.92
31.48 31.52 31.53 31.27 31.11 30.74 30.64 30.89 30.42 29.61 30.00 29.79 29.89 29.86 29.51 30.37 30.78 30.97 30.90 30.55 28.32 24.74 27.45 32.04 32.36 36.83 37.31 36.81 36.55 36.34 36.65 37.43 38.64 39.35 39.98 41.01 42.13 43.97 45.54 46.97 48.64 51.46 54.61
31.38 31.15 30.97 30.86 30.43 30.21 29.95 30.05 29.73 29.78 29.30 29.94 29.47 29.10 29.47 29.94 29.65 30.18 29.98 29.68 29.31 27.29 24.51 30.41 32.03 33.47 34.35 33.91 34.43 34.93 35.04 35.75 37.10 37.90 38.50 39.16 40.26 41.36 42.95 44.87 46.50 48.62 51.69
30.97 30.20 29.56 29.17 28.64 28.33 28.28 28.35 27.98 27.91 27.06 27.51 28.44 27.82 27.67 28.47 28.25 28.70 28.86 28.65 28.03 27.87 25.12 28.25 30.16 31.56 31.12 31.20 32.65 33.68 34.74 34.46 36.22 36.76 37.00 38.10 38.80 39.62 40.83 42.34 44.21 45.76 47.71
29.68 28.96 28.08 27.64 27.12 26.74 26.65 26.19 25.82 26.16 25.59 25.64 26.03 25.85 25.82 26.30 25.78 26.67 26.85 26.18 26.18 26.68 24.78 23.31 26.45 27.57 28.42 30.15 31.07 30.94 31.84 32.73 33.85 35.13 36.41 37.21 37.90 38.58 39.37 40.62 41.91 43.47 45.07
28.30 27.26 26.50 25.79 25.26 25.04 24.78 25.06 25.31 25.08 25.15 25.16 25.14 24.53 24.48 24.35 23.37 24.26 24.18 23.86 24.39 24.56 24.45 23.69 23.40 25.59 26.81 28.23 28.42 29.33 29.81 31.00 32.82 34.28 35.68 36.05 36.52 37.28 38.15 39.04 40.07 42.14 42.87
26.66 25.68 25.09 24.34 23.87 23.64 23.67 24.46 24.48 24.72 24.83 24.80 24.58 24.09 23.45 22.77 22.14 22.04 21.74 21.91 22.42 22.26 22.39 22.06 22.45 22.82 23.30 25.03 25.86 25.78 26.75 29.63 29.56 32.08 33.94 35.02 35.78 36.15 36.70 37.53 38.09 38.84 40.37
25.22 24.42 23.51 22.40 22.30 22.20 23.59 23.69 24.22 24.17 23.49 23.04 23.14 22.81 22.80 22.31 21.13 21.36 20.62 20.84 20.65 20.23 19.70 19.17 18.99 20.39 20.54 21.12 20.45 22.83 22.42 24.49 25.97 27.82 28.45 31.55 34.65 35.85 36.70 37.37 36.84 37.49 38.69
22.24 21.62 20.72 19.96 19.63 21.04 19.86 21.96 23.05 22.62 22.11 21.21 20.68 21.12 21.31 20.62 20.96 21.10 21.25 21.69 21.27 19.42 18.02 18.62 17.87 17.20 18.47 20.38 21.73 21.23 20.73 19.93 18.48 25.89 24.99 24.48 27.74 27.80 29.96 35.58 36.61 37.26 36.84
21.05 19.62 19.20 18.76 18.27 18.78 18.38 21.30 21.73 21.28 20.97 20.61 19.45 19.08 19.12 20.03 19.74 19.32 19.81 20.65 20.86 21.55 22.32 20.40 18.66 18.42 18.73 20.15 20.90 19.65 19.75 20.16 20.28 23.76 23.64 21.62 26.18 25.80 29.39 31.23 32.72 35.57 36.39
18.96 18.51 18.10 17.40 17.24 17.59 17.84 19.31 20.61 20.71 20.08 19.55 19.14 18.70 18.29 18.58 19.41 19.08 18.84 19.23 19.54 20.62 21.23 21.64 21.30 21.52 21.97 22.99 22.67 22.38 22.00 22.13 23.16 24.11 24.83 19.65 24.55 24.41 27.47 29.29 30.87 32.15 33.78
17.57 16.96 16.78 16.00 14.49 15.00 15.85 18.11 19.15 19.42 18.89 18.31 18.85 19.19 19.19 18.47 20.07 22.33 21.45 20.50 20.82 21.51 24.10 25.12 25.62 26.28 26.79 27.17 26.72 24.89 22.76 21.58 19.82 21.42 24.37 21.94 22.63 22.55 23.75 25.01 27.51 29.67 32.49
16.20 15.87 15.44 14.91 12.86 11.70 14.22 16.54 18.64 19.24 18.02 18.49 19.24 19.84 21.38 21.21 22.41 23.49 21.86 21.32 19.85 21.56 23.22 23.91 24.25 24.94 25.56 24.96 25.53 24.52 22.90 19.15 18.99 18.22 22.84 20.42 21.41 21.57 18.30 24.01 26.09 27.61 29.49
MSLP
1021.69 1021.96 1022.31 1022.63 1022.88 1023.14 1023.36 1023.72 1024.05 1024.32 1024.36 1024.32 1024.34 1024.27 1024.10 1024.03 1023.92 1023.76 1023.65 1023.93 1023.96 1023.75 1023.46 1023.10 1022.67 1022.35 1022.27 1022.21 1022.20 1022.10 1022.03 1022.09 1022.23 1022.18 1022.41 1022.27 1022.25 1022.13 1021.88 1021.69 1021.77 1021.63 1021.63
1022.26 1022.44 1022.67 1022.82 1023.09 1023.11 1023.38 1023.94 1024.30 1024.44 1024.64 1024.62 1024.23 1024.43 1024.50 1024.41 1024.24 1024.10 1023.80 1023.59 1023.86 1023.75 1023.53 1023.33 1023.15 1022.80 1022.48 1022.12 1021.91 1021.91 1021.87 1021.77 1021.77 1021.99 1022.29 1022.37 1022.29 1022.12 1021.94 1021.81 1021.97 1021.97 1021.85
1022.57 1022.79 1023.31 1023.62 1023.72 1023.80 1023.97 1024.08 1024.40 1024.65 1024.53 1024.47 1024.47 1024.33 1024.10 1024.02 1023.93 1023.91 1023.97 1023.92 1023.69 1023.70 1023.74 1023.56 1023.35 1023.14 1022.96 1022.69 1022.30 1021.96 1021.58 1021.42 1021.58 1021.87 1022.17 1022.21 1022.30 1022.24 1022.07 1021.96 1021.97 1022.07 1021.82
1023.74 1023.61 1023.78 1024.30 1024.44 1024.42 1024.35 1024.48 1024.67 1024.77 1024.84 1024.67 1024.52 1024.27 1024.37 1023.93 1023.79 1023.78 1023.58 1023.48 1023.64 1023.79 1023.68 1023.82 1023.75 1023.53 1023.20 1022.80 1022.48 1022.19 1021.88 1021.57 1021.52 1021.54 1021.56 1021.85 1022.11 1022.23 1022.11 1022.05 1022.04 1021.84 1021.80
1024.72 1024.60 1024.71 1024.75 1025.04 1025.03 1025.04 1025.11 1025.29 1024.96 1025.08 1024.96 1024.74 1024.59 1024.52 1024.39 1023.89 1023.76 1023.73 1023.76 1023.82 1023.77 1023.59 1023.62 1023.82 1023.73 1023.50 1023.13 1022.69 1022.32 1021.98 1021.73 1021.49 1021.33 1021.36 1021.53 1021.64 1021.93 1022.05 1022.00 1021.88 1021.78 1021.66
1025.40 1025.36 1025.59 1025.49 1025.29 1025.20 1025.19 1025.09 1025.18 1025.28 1025.21 1025.07 1024.69 1024.33 1023.90 1023.73 1023.74 1023.76 1023.86 1024.01 1023.92 1024.07 1023.98 1023.87 1023.61 1023.23 1023.37 1023.28 1022.97 1022.58 1022.21 1021.84 1021.48 1021.16 1020.93 1021.08 1021.11 1021.18 1021.41 1021.80 1021.64 1021.50 1021.47
1026.04 1025.77 1025.61 1025.98 1026.00 1025.93 1025.89 1025.58 1025.40 1025.19 1025.27 1025.17 1024.23 1023.75 1023.57 1023.88 1023.85 1023.78 1023.90 1023.99 1024.29 1024.40 1024.33 1024.07 1023.82 1023.70 1023.32 1023.11 1022.86 1022.74 1022.41 1021.95 1021.57 1021.31 1020.99 1020.66 1020.75 1020.81 1020.95 1020.95 1021.22 1021.17 1021.20
1027.29 1027.01 1026.77 1026.98 1026.69 1026.64 1026.78 1026.58 1026.29 1026.08 1026.17 1026.04 1025.44 1024.32 1023.62 1023.53 1023.92 1023.92 1024.12 1024.34 1024.33 1024.31 1024.27 1024.20 1024.03 1023.72 1023.46 1023.10 1022.86 1022.66 1022.27 1022.01 1021.70 1021.40 1021.10 1020.84 1020.57 1020.38 1020.40 1020.48 1020.55 1020.72 1020.70
1028.21 1028.21 1028.11 1027.96 1028.04 1027.82 1027.85 1027.79 1027.57 1027.24 1026.81 1026.78 1026.63 1026.12 1025.07 1024.84 1024.74 1024.14 1024.44 1024.46 1024.53 1024.51 1024.32 1024.14 1023.97 1023.76 1023.41 1023.03 1022.69 1022.42 1022.32 1022.24 1021.85 1021.49 1021.19 1020.91 1020.60 1020.29 1020.01 1019.94 1020.01 1020.18 1020.34
1029.20 1029.18 1029.23 1029.10 1029.01 1029.00 1028.83 1028.93 1028.75 1028.39 1028.18 1027.86 1027.50 1027.52 1027.44 1027.23 1026.21 1024.97 1024.76 1024.95 1025.13 1025.14 1024.78 1024.36 1024.01 1023.68 1023.37 1023.06 1022.73 1022.55 1022.49 1022.37 1022.09 1021.75 1021.35 1020.96 1020.56 1020.23 1019.96 1019.61 1019.41 1019.51 1019.77
1030.01 1029.96 1029.78 1029.99 1029.97 1029.77 1029.95 1029.68 1029.46 1029.37 1029.06 1028.96 1029.00 1028.70 1028.14 1027.65 1027.50 1027.13 1025.55 1025.25 1025.48 1025.24 1025.03 1024.98 1024.41 1023.75 1023.36 1023.10 1022.80 1022.58 1022.67 1022.34 1021.98 1021.68 1021.39 1021.01 1020.64 1020.17 1019.82 1019.46 1019.07 1018.72 1019.06
1030.55 1030.74 1030.63 1030.78 1030.88 1030.78 1030.88 1030.69 1030.40 1030.32 1030.10 1029.88 1029.74 1029.54 1029.40 1029.05 1028.46 1028.23 1027.32 1026.50 1025.83 1025.17 1025.34 1024.82 1024.45 1023.79 1023.49 1023.15 1022.98 1023.04 1022.78 1022.46 1022.02 1021.56 1021.20 1020.89 1020.54 1020.08 1019.58 1019.15 1018.76 1018.29 1018.24
1030.96 1031.23 1031.03 1031.12 1031.33 1031.30 1031.29 1031.30 1031.03 1030.96 1030.95 1030.67 1030.40 1030.14 1030.04 1029.83 1029.56 1028.96 1028.20 1027.16 1026.46 1025.65 1024.96 1024.51 1024.13 1023.98 1023.62 1023.19 1022.88 1023.00 1022.71 1022.17 1021.87 1021.52 1021.04 1020.57 1020.17 1019.77 1019.33 1018.90 1018.44 1017.96 1017.38
1031.16 1031.40 1031.33 1031.54 1031.73 1031.76 1031.41 1031.59 1031.56 1031.45 1031.49 1031.06 1030.86 1030.68 1030.65 1030.26 1030.05 1029.64 1029.19 1028.55 1027.04 1026.01 1025.11 1024.31 1024.08 1023.73 1023.54 1023.32 1023.33 1022.97 1022.30 1021.85 1021.46 1021.17 1020.75 1020.27 1019.74 1019.31 1018.94 1018.49 1018.01 1017.48 1016.85
1031.49 1031.44 1031.52 1031.56 1031.71 1031.70 1031.82 1031.70 1031.53 1031.71 1031.79 1031.54 1031.10 1030.91 1030.77 1030.54 1030.36 1030.00 1029.63 1029.36 1028.73 1026.86 1025.20 1024.64 1024.38 1023.80 1023.74 1023.63 1023.25 1022.88 1022.30 1021.58 1021.07 1020.70 1020.27 1019.81 1019.29 1018.86 1018.42 1018.03 1017.57 1017.08 1016.50
1031.73 1031.71 1031.74 1031.70 1031.80 1031.94 1031.93 1031.84 1031.61 1031.65 1031.56 1031.32 1031.14 1030.92 1030.73 1030.47 1030.32 1029.95 1029.66 1029.42 1029.07 1028.24 1026.54 1025.86 1024.85 1024.42 1024.09 1023.44 1023.08 1022.54 1021.91 1021.37 1020.67 1020.03 1019.72 1019.26 1018.77 1018.28 1017.89 1017.53 1017.16 1016.72 1016.29
1031.66 1031.69 1032.05 1032.15 1032.03 1032.03 1032.06 1032.03 1031.94 1031.80 1031.74 1031.50 1031.23 1030.91 1030.65 1030.50 1030.19 1029.82 1029.52 1029.23 1028.76 1028.36 1027.11 1025.34 1025.19 1024.65 1023.66 1023.07 1022.39 1022.13 1021.57 1020.83 1020.04 1019.52 1019.10 1018.62 1018.16 1017.76 1017.29 1016.88 1016.64 1016.34 1015.97
1031.80 1032.17 1032.20 1032.17 1032.19 1032.29 1032.29 1032.23 1032.10 1032.01 1031.78 1031.40 1031.22 1030.92 1030.60 1030.43 1030.27 1029.97 1029.57 1029.13 1028.68 1028.24 1027.56 1025.83 1024.93 1024.54 1024.01 1023.35 1022.39 1021.53 1020.87 1020.37 1019.66 1018.92 1018.53 1018.05 1017.56 1017.09 1016.64 1016.19 1015.82 1015.65 1015.47
1031.93 1032.15 1032.30 1032.35 1032.41 1032.45 1032.32 1032.26 1032.20 1031.97 1031.71 1031.44 1031.19 1030.92 1030.63 1030.45 1030.23 1029.94 1029.65 1029.07 1028.54 1028.03 1027.53 1026.47 1024.46 1024.62 1023.92 1023.34 1022.31 1021.53 1020.59 1019.62 1018.94 1018.30 1017.76 1017.36 1016.92 1016.31 1015.84 1015.31 1014.98 1014.69 1014.59
1032.06 1032.28 1032.18 1032.56 1032.56 1032.45 1032.32 1032.08 1032.07 1031.78 1031.52 1031.26 1031.05 1030.81 1030.56 1030.35 1030.16 1029.93 1029.58 1029.07 1028.43 1027.80 1027.25 1026.47 1025.22 1024.23 1023.88 1023.22 1022.50 1021.30 1019.93 1019.57 1018.63 1018.15 1017.52 1016.85 1016.20 1015.60 1015.16 1014.69 1014.27 1013.96 1013.78
1032.04 1032.29 1032.34 1032.57 1032.53 1032.34 1031.97 1031.96 1031.65 1031.42 1031.18 1030.87 1030.65 1030.49 1030.27 1030.18 1030.35 1030.08 1029.56 1028.80 1028.39 1027.78 1027.18 1026.44 1025.45 1024.35 1023.45 1022.81 1022.36 1021.75 1020.75 1019.76 1018.64 1018.58 1017.27 1016.03 1015.31 1014.62 1014.10 1013.62 1013.25 1013.07 1012.98
1032.19 1032.41 1032.55 1032.53 1032.47 1032.10 1032.16 1031.93 1031.58 1031.19 1030.94 1030.62 1030.32 1030.12 1030.00 1029.92 1029.51 1029.36 1029.08 1028.70 1028.35 1027.66 1026.93 1026.30 1025.37 1024.25 1023.29 1022.74 1022.09 1021.50 1020.91 1020.04 1018.36 1018.78 1017.36 1016.23 1016.33 1015.21 1014.77 1013.75 1012.93 1012.49 1012.34
1031.92 1032.08 1032.30 1032.36 1032.29 1032.05 1031.98 1031.54 1031.34 1030.96 1030.59 1030.29 1030.15 1029.83 1029.49 1029.23 1029.07 1028.69 1028.37 1027.96 1027.42 1027.03 1026.34 1025.63 1024.67 1023.98 1022.87 1022.37 1021.67 1020.97 1020.51 1019.87 1018.87 1018.20 1017.64 1015.19 1015.79 1014.59 1014.22 1013.26 1012.80 1011.95 1011.44
1031.66 1031.86 1032.02 1032.09 1032.05 1031.64 1031.53 1031.27 1030.97 1030.43 1030.10 1029.92 1029.74 1029.44 1029.00 1028.57 1028.31 1028.02 1027.35 1026.62 1026.06 1025.57 1025.18 1024.47 1023.66 1022.72 1022.15 1021.57 1021.04 1020.24 1019.53 1018.87 1018.18 1017.58 1017.19 1014.79 1015.12 1013.84 1013.44 1012.74 1012.21 1011.59 1010.97
1031.38 1031.64 1031.76 1031.88 1031.92 1031.43 1031.32 1030.91 1030.54 1030.03 1029.57 1029.33 1029.11 1028.74 1028.38 1027.98 1027.65 1026.91 1025.97 1025.19 1024.46 1023.77 1023.11 1022.45 1021.77 1021.03 1020.37 1019.86 1019.44 1018.92 1018.06 1017.69 1016.43 1016.10 1015.99 1015.05 1014.34 1013.31 1012.85 1011.79 1011.42 1010.92 1009.96
1031.03 1031.34 1031.41 1031.52 1031.58 1031.30 1030.97 1030.66 1030.13 1029.56 1029.00 1028.55 1028.23 1027.74 1027.39 1026.84 1026.36 1025.68 1024.97 1024.15 1022.99 1022.22 1021.75 1021.13 1020.59 1020.02 1019.56 1019.03 1018.58 1018.18 1017.60 1016.85 1016.10 1014.89 1015.01 1014.66 1013.98 1013.52 1011.63 1010.91 1010.07 1010.13 1009.95
Wind_Speed
1 2 2 3 3 3 3 2 2 2 4 5 4 5 4 3 4 3 3 3 7 9 11 11 9 8 6 5 4 4 3 4 6 3 1 4 8 9 6 7 5 6 8
3 3 1 0 1 2 4 3 2 1 2 2 3 4 5 5 5 5 4 4 4 7 7 9 10 11 12 10 8 6 7 9 9 4 5 3 7 7 6 7 5 6 7
7 7 6 5 4 4 4 3 3 2 1 1 2 2 3 3 3 4 4 5 6 3 7 9 8 8 9 11 14 14 8 10 7 5 7 1 4 6 6 7 9 5 7
11 9 7 6 5 5 3 3 3 2 2 3 4 4 4 5 5 5 3 2 3 5 5 9 12 12 11 10 10 12 13 11 7 8 11 8 1 7 8 5 7 6 9
12 9 7 7 6 6 6 4 4 3 2 3 3 3 3 4 5 4 5 4 5 4 4 6 8 10 10 13 13 12 13 13 12 14 9 8 6 5 9 10 9 9 10
11 9 7 8 7 6 6 5 6 5 5 6 5 5 4 3 2 3 5 4 5 5 6 7 6 5 8 12 14 15 15 15 14 13 14 12 11 10 7 10 12 11 11
11 10 8 8 9 9 9 9 5 7 6 9 4 4 3 4 4 4 4 5 8 8 8 7 5 6 6 11 10 13 16 17 17 16 14 14 12 11 11 10 12 12 13
13 11 11 10 11 9 11 11 10 5 6 9 6 4 3 2 4 7 4 5 8 6 8 9 9 8 7 7 8 14 13 15 18 18 18 17 16 13 14 13 13 14 14
14 14 14 12 12 10 10 11 11 12 7 6 12 6 4 4 9 2 6 6 9 10 11 10 11 11 10 8 9 10 12 16 17 17 19 20 20 19 16 17 15 14 15
13 13 13 12 12 9 10 10 9 10 9 9 4 7 6 5 5 6 3 8 9 12 12 9 11 12 11 9 9 9 10 15 17 18 19 20 21 21 21 20 19 16 15
12 12 12 11 11 8 10 11 10 10 8 7 6 5 5 4 4 6 9 10 9 7 6 11 10 10 10 9 8 8 15 15 16 17 19 20 21 22 21 21 23 20 17
8 10 10 10 10 9 9 8 8 9 8 7 5 5 5 4 6 6 9 12 13 8 10 8 9 9 9 7 8 9 14 18 19 18 18 19 21 22 23 22 23 26 21
6 8 8 8 7 7 7 7 7 7 7 6 6 5 4 4 5 6 7 10 11 11 8 8 7 6 8 8 7 10 18 18 19 20 21 21 21 21 23 24 24 25 25
6 6 7 7 7 7 7 6 5 5 5 5 6 5 5 4 5 5 7 10 12 11 12 16 11 6 8 7 11 19 14 19 21 22 22 22 22 22 22 24 25 25 25
5 6 6 6 6 6 5 5 4 4 4 4 4 5 5 5 5 6 6 7 9 11 13 11 11 8 9 10 13 15 16 21 24 25 24 23 22 23 23 24 25 25 25
5 5 5 5 6 6 6 6 4 4 6 5 5 7 7 6 7 6 6 7 8 11 13 10 12 15 13 12 14 15 16 20 23 24 24 24 23 23 23 24 25 25 26
5 5 5 4 4 5 5 5 5 5 6 7 7 8 9 9 7 8 8 8 9 10 13 13 12 14 19 17 14 13 13 15 13 21 26 26 25 25 24 24 25 26 27
4 3 3 3 3 4 5 5 5 5 7 8 9 9 10 8 10 10 8 12 11 12 12 19 15 13 15 17 17 18 13 12 14 19 26 27 27 26 26 25 25 25 25
4 3 1 0 1 3 4 4 5 7 7 8 8 10 10 10 11 9 11 11 11 11 12 13 16 12 12 12 15 15 16 14 12 20 24 24 25 25 25 25 26 24 24
4 4 4 3 3 4 4 4 6 7 8 8 9 9 10 11 11 12 12 13 12 12 12 12 13 13 13 13 12 13 13 11 12 12 15 18 23 24 28 28 27 23 23
5 4 4 4 4 5 3 6 6 8 9 10 9 9 10 11 16 15 11 13 14 12 12 12 13 13 13 12 13 11 13 13 14 13 13 10 10 10 11 15 14 18 22
5 5 5 5 5 4 4 8 9 8 9 10 10 10 10 12 13 17 19 20 18 13 14 11 12 15 17 14 12 11 12 13 16 11 12 14 11 13 13 12 19 22 24
5 5 6 5 6 5 6 9 10 8 9 9 10 10 10 9 12 12 16 20 20 21 22 16 16 16 18 17 16 16 15 14 14 12 15 18 12 13 11 13 27 27 26
6 5 6 6 7 5 8 10 11 9 8 10 10 11 12 13 13 14 16 16 17 16 16 14 17 18 18 17 17 17 17 17 15 13 13 19 11 14 12 12 26 30 32
6 6 6 6 7 6 8 10 10 8 9 10 10 11 12 14 18 22 17 16 17 16 19 28 30 32 32 32 27 15 13 14 14 12 11 14 11 14 14 13 13 29 29
6 5 6 7 7 7 9 10 10 7 9 8 10 11 14 16 23 25 17 16 18 16 14 15 13 15 19 19 27 19 14 15 15 15 12 13 11 12 14 10 9 9 12
Wind_Direction
36 195 170 170 188 158 187 162 85 62 1 4 5 350 354 351 341 330 320 37 355 355 355 353 343 322 315 308 296 273 233 214 184 158 210 356 336 319 318 346 332 15 342
49 55 88 145 67 52 48 56 79 79 62 11 5 6 347 335 331 327 327 326 342 343 349 354 355 353 348 329 304 264 275 257 245 173 143 1 336 314 305 315 330 320 321
71 76 52 37 32 50 65 77 70 55 109 49 345 315 292 274 283 302 322 327 331 308 340 341 343 343 344 340 335 333 294 313 206 166 161 68 340 326 319 297 284 292 306
51 55 60 48 48 51 70 67 60 66 354 351 340 334 310 294 287 291 278 289 329 332 334 0 344 340 333 327 323 324 326 320 214 220 205 197 201 308 301 295 292 297 294
54 59 48 56 40 50 42 33 43 52 33 354 314 299 287 283 304 318 321 328 337 320 323 334 335 325 336 330 325 320 316 316 302 263 243 200 196 270 286 286 290 292 286
60 69 63 59 58 61 54 59 61 60 29 351 313 294 283 272 304 354 2 356 18 354 341 334 328 331 331 330 326 321 317 309 305 315 246 218 233 216 223 268 276 272 283
57 62 69 58 57 51 46 34 36 41 34 357 323 335 334 47 50 43 16 24 33 11 359 356 350 340 327 321 317 319 317 313 309 307 317 253 239 235 231 230 266 272 266
51 55 56 51 47 54 43 37 34 37 34 22 352 299 352 161 35 353 40 33 12 2 353 343 334 331 326 320 317 313 309 311 311 311 305 302 302 280 252 250 252 268 270
57 57 57 58 53 50 49 40 32 30 31 38 34 8 336 348 332 54 17 1 1 349 337 338 333 326 322 316 312 315 318 318 313 308 306 303 296 289 290 256 249 253 265
61 60 59 59 60 56 56 47 41 43 34 32 31 26 29 350 338 320 340 348 352 335 337 337 330 328 324 319 320 304 320 324 319 312 305 299 293 291 285 280 251 245 255
63 60 60 58 58 55 52 49 44 42 46 43 32 3 3 359 20 311 313 324 325 339 325 325 316 321 328 327 326 336 338 330 326 319 311 303 294 289 286 281 273 246 244
71 64 66 62 57 54 45 43 48 45 36 39 24 24 13 350 342 329 313 316 317 320 321 301 315 311 324 320 328 342 340 329 322 320 316 311 303 292 285 280 275 270 237
84 70 70 67 60 56 51 42 42 43 28 27 19 9 357 345 327 315 310 314 310 312 303 307 305 303 304 312 317 354 327 313 316 316 312 306 302 299 289 282 276 268 251
95 86 77 68 59 48 43 37 35 31 13 19 10 5 335 335 328 321 312 314 309 301 302 308 309 296 304 314 317 325 310 310 309 307 306 303 298 293 292 286 279 272 258
107 97 81 74 64 56 41 23 29 22 2 356 346 344 331 323 317 314 305 299 297 302 301 307 302 318 318 311 301 306 304 299 301 301 298 296 295 292 288 285 282 275 262
116 104 85 65 47 33 20 6 9 6 349 348 338 333 330 327 316 306 299 291 283 284 287 298 295 302 301 300 300 295 293 295 290 293 294 292 290 289 288 284 280 275 268
111 83 63 53 40 20 10 352 350 341 335 329 323 325 320 322 312 311 304 295 289 286 284 287 290 295 299 302 300 301 297 293 290 289 290 288 287 287 284 281 278 274 270
114 102 85 58 26 359 348 334 328 322 320 317 319 317 314 318 311 307 301 298 294 292 288 290 291 296 292 299 301 301 296 296 286 284 287 288 289 286 282 278 274 273 269
158 143 128 57 315 312 312 299 298 305 303 303 303 305 305 307 303 303 301 298 297 297 294 291 297 300 296 292 292 296 299 296 282 277 282 283 284 286 282 277 273 267 264
195 205 200 228 249 279 280 276 292 293 292 294 295 297 300 299 299 303 300 297 295 295 294 291 293 300 300 300 294 296 296 308 308 308 305 293 284 278 278 278 277 273 266
213 218 220 242 248 261 262 296 295 299 298 300 300 298 295 304 298 292 290 295 298 296 295 295 292 292 298 306 300 302 294 299 299 304 292 289 307 299 283 285 279 266 262
210 213 230 238 257 254 284 289 301 301 296 294 298 300 298 296 292 299 294 292 291 291 285 291 294 287 293 297 297 296 296 293 299 306 312 294 297 294 292 300 284 282 279
213 224 237 240 250 259 268 295 299 292 293 292 295 298 299 299 299 297 298 293 288 282 278 282 284 284 287 288 293 290 283 281 286 291 291 287 296 283 281 276 279 287 279
218 227 236 244 254 261 280 295 298 292 289 288 293 296 296 299 301 303 294 285 279 277 273 270 266 268 270 274 271 273 275 273 269 270 270 281 295 287 294 287 283 279 277
221 230 233 242 257 272 286 294 298 294 288 290 291 290 295 298 296 292 292 291 286 276 270 270 270 273 275 278 277 279 278 281 281 276 273 278 289 292 289 282 272 275 278
229 231 243 250 257 271 284 287 290 283 287 294 297 293 285 292 301 299 294 289 283 286 291 287 287 290 284 277 276 273 276 275 279 279 271 278 285 299 297 284 266 323 310